Wind_Speed
30 31 31 31 31 33 34 35 36 36 37 38 38 37 36 36 36 36 37 37 38 38 38 38 38 39 39 39 39 40 40 41 42 42 42 43 43 44 44 44 45 45 45 46
31 32 31 31 32 33 34 35 36 37 38 39 40 39 38 37 37 38 38 38 38 39 38 38 38 39 40 40 40 41 41 42 43 43 44 44 44 44 45 45 45 46 47 48
33 32 32 33 34 35 36 36 37 38 38 39 41 40 38 38 38 39 39 39 38 38 38 38 38 39 40 41 41 41 42 42 43 44 44 45 46 45 46 47 47 48 49 49
34 33 33 34 35 36 37 37 38 39 39 39 40 42 38 38 38 39 39 39 38 37 37 38 38 39 40 41 42 43 43 44 44 45 45 46 46 47 48 48 49 49 50 50
34 34 35 35 36 37 38 38 39 39 40 40 40 42 38 37 37 37 38 38 38 37 37 38 39 39 40 42 42 43 44 45 46 47 47 47 48 48 48 49 49 49 50 50
35 35 36 36 36 37 38 38 39 40 41 41 39 41 40 37 36 36 36 37 37 37 37 38 39 40 41 42 43 44 45 45 46 47 48 48 48 49 49 49 50 50 51 51
36 36 36 37 37 37 38 38 40 42 42 42 40 41 41 38 36 36 36 36 37 38 38 39 40 40 41 42 43 44 45 46 46 47 47 47 48 49 50 50 50 50 51 51
36 36 36 37 37 38 38 38 39 41 42 42 41 42 40 39 37 36 36 37 38 38 39 39 40 40 40 41 41 43 44 45 46 47 48 48 49 50 49 49 50 50 51 51
36 37 36 37 37 38 38 38 38 40 42 43 43 42 41 39 38 37 37 38 39 39 40 40 40 40 41 41 41 42 43 44 45 46 48 49 50 50 50 50 50 50 51 52
38 39 38 38 38 38 38 38 39 40 42 43 43 42 41 39 39 39 39 39 40 40 40 40 40 40 41 41 42 42 43 43 45 46 48 49 50 50 50 50 50 50 51 51
38 40 39 39 38 38 38 39 39 41 42 44 44 42 40 40 39 39 40 40 40 40 40 40 40 40 41 41 42 43 43 43 44 45 47 48 49 50 51 51 51 50 51 50
38 39 40 39 38 38 38 38 39 40 42 43 45 43 40 40 39 39 39 40 40 40 40 40 41 41 41 41 41 42 43 43 44 44 45 47 48 49 50 50 50 50 50 50
37 38 39 39 38 38 39 39 39 40 42 42 43 42 40 40 39 39 39 40 41 41 41 41 41 42 42 41 42 42 43 44 44 44 44 45 46 47 49 49 49 49 49 49
37 38 38 39 38 39 39 40 40 41 43 44 42 41 39 39 39 39 40 40 41 41 41 41 41 41 42 42 43 43 43 43 44 44 44 45 45 45 46 46 47 47 48 48
38 39 38 39 39 39 39 39 40 41 42 44 42 42 40 40 40 40 40 41 41 41 41 41 41 41 41 42 42 42 42 42 42 42 43 43 43 43 44 45 45 46 47 47
38 39 39 39 39 39 39 38 39 40 40 41 41 40 39 40 41 41 42 41 41 40 41 41 41 41 41 42 42 42 42 42 41 41 42 42 43 43 44 45 45 45 46 47
38 39 39 39 38 38 38 36 37 38 38 39 40 38 38 39 39 39 40 40 40 40 41 41 41 41 41 41 41 41 41 41 41 41 41 42 43 43 44 44 45 45 45 45
37 37 37 38 38 39 37 37 37 38 37 37 38 37 37 38 37 38 39 39 39 39 39 40 40 39 39 39 39 40 40 41 41 42 42 42 42 43 43 44 44 43 43 44
36 36 37 37 38 38 37 37 37 37 36 36 36 37 37 37 37 38 39 39 39 39 39 39 39 39 39 39 39 39 39 40 40 41 41 41 42 42 43 43 43 43 42 42
34 35 37 37 37 36 35 36 37 37 37 36 36 37 37 38 38 37 38 38 39 39 39 39 39 39 39 39 39 39 39 39 39 40 41 41 41 42 42 42 42 41 41 41
34 35 36 36 36 36 35 34 35 36 37 37 37 38 38 38 38 38 39 39 39 39 39 39 38 38 38 39 39 39 39 39 39 39 40 40 41 41 41 41 40 40 40 40
35 35 35 36 36 36 35 35 35 36 37 38 37 37 37 37 37 38 38 38 38 38 38 38 38 37 37 38 38 38 38 39 38 38 38 39 39 39 39 38 38 37 37 38
36 36 35 35 36 36 36 37 37 37 37 37 37 37 36 37 37 37 37 37 37 37 37 37 37 37 37 37 37 37 37 37 37 37 37 37 38 38 37 36 36 35 35 35
35 36 36 36 36 36 36 36 36 36 36 36 36 36 36 36 36 36 36 36 36 36 36 36 36 36 36 36 37 37 36 36 36 36 37 37 36 35 35 35 34 34 34 33
34 35 35 35 35 35 35 36 36 36 36 36 35 35 36 36 35 35 35 36 36 36 36 35 35 35 35 35 36 36 36 36 35 35 35 35 33 33 33 32 32 31 31 32
33 34 34 35 35 35 35 35 35 35 35 35 35 35 35 35 35 35 35 36 36 35 35 34 34 35 35 35 35 35 35 35 34 34 33 33 32 32 32 31 30 30 30 30
Wind_Direction
274 273 274 275 274 274 274 273 273 274 274 273 272 272 273 274 275 275 275 275 275 276 275 274 273 272 272 272 272 272 272 272 272 272 272 273 273 272 272 271 270 269 269 270
275 274 275 274 273 273 274 274 275 275 275 275 274 273 273 274 275 276 276 276 275 275 274 273 273 272 272 272 272 272 272 273 273 273 273 272 273 273 272 271 270 270 269 270
276 275 274 273 274 274 275 276 276 277 277 277 276 274 274 274 274 275 276 276 276 276 275 274 274 273 273 273 273 273 273 272 272 272 272 271 272 273 273 272 271 271 271 271
277 275 273 273 274 275 276 276 277 276 277 277 277 277 275 275 275 276 276 277 277 276 275 274 274 274 273 273 273 273 273 273 272 272 271 271 271 272 273 272 272 272 272 272
279 277 274 273 274 275 276 276 276 276 276 276 277 279 277 278 278 278 277 277 276 276 275 274 274 274 273 273 273 273 273 273 273 272 271 271 271 272 272 272 272 272 273 273
277 276 275 274 274 274 275 275 275 275 276 276 278 279 279 280 281 280 279 278 277 276 275 275 275 274 274 273 273 273 273 273 273 272 271 271 271 272 272 272 273 274 274 274
276 275 275 275 275 274 275 276 277 277 277 277 278 278 279 281 281 281 280 279 279 278 277 276 277 277 276 275 274 273 274 274 274 273 272 272 272 272 272 273 273 274 275 275
277 276 276 277 277 276 275 276 277 279 280 280 279 279 280 281 282 281 281 280 280 280 279 279 279 279 278 277 276 275 274 274 273 272 272 272 272 272 273 273 275 275 276 276
278 277 277 277 276 275 275 275 276 277 278 279 279 279 280 281 281 281 281 280 280 280 280 280 280 280 279 278 277 276 275 274 273 273 273 273 273 274 274 274 275 276 277 277
279 278 277 276 276 274 274 274 274 276 278 279 279 280 281 282 283 283 282 282 281 282 281 280 280 279 279 278 277 276 276 277 275 275 275 275 274 275 275 275 276 277 278 278
279 278 278 276 276 275 274 273 274 274 276 277 279 281 283 284 284 284 284 284 283 282 281 280 280 279 280 279 278 277 278 278 278 277 277 276 275 275 275 276 277 278 278 279
279 278 278 277 276 276 276 275 275 275 276 277 279 280 283 284 284 284 283 283 282 281 280 280 279 279 279 279 278 278 279 280 279 279 279 278 278 277 277 277 278 279 279 280
279 278 278 278 278 277 276 275 275 274 275 276 278 280 281 281 283 283 282 282 282 281 280 279 279 279 279 279 278 279 280 280 280 280 281 280 280 279 279 279 279 280 280 280
276 277 277 279 281 280 278 276 275 274 274 276 277 278 280 280 281 282 282 282 282 282 281 280 279 279 279 279 279 280 281 281 281 281 282 282 282 281 281 281 281 280 280 280
274 276 277 278 279 279 278 277 275 275 276 277 278 278 279 279 280 281 281 282 282 282 281 279 279 280 281 280 280 280 281 281 281 282 282 283 283 283 282 282 282 281 281 281
276 277 278 278 278 278 277 278 278 277 277 277 278 279 280 279 279 280 281 282 282 282 281 281 280 281 281 281 280 280 280 280 281 282 283 283 283 283 283 283 283 284 285 285
278 279 279 279 278 277 277 280 280 279 278 278 279 281 280 280 280 280 281 282 282 281 281 281 281 281 281 282 282 281 281 282 282 282 283 283 284 284 285 285 285 286 286 286
280 280 280 279 279 278 281 281 281 281 280 280 280 280 280 280 279 280 281 283 283 283 282 282 282 282 282 283 283 283 282 283 283 282 283 284 284 285 285 286 287 286 286 287
282 281 281 281 281 281 281 282 282 281 280 281 281 280 280 281 281 281 283 283 284 283 283 283 282 283 283 283 284 284 284 284 284 284 284 284 284 285 287 287 288 287 287 287
283 282 282 282 282 284 285 284 283 282 281 281 281 281 282 281 281 282 284 284 284 284 284 284 283 283 284 285 285 285 285 285 286 286 286 285 286 287 288 288 288 288 287 287
283 282 281 281 281 283 286 286 285 283 283 283 283 283 283 283 284 285 286 285 285 285 285 284 285 285 284 285 285 285 285 286 287 287 287 286 287 288 288 289 289 288 287 286
284 282 281 282 282 283 285 285 285 285 284 284 284 284 284 284 284 285 286 286 286 286 286 285 284 284 284 285 285 285 286 287 288 289 289 289 288 288 289 289 289 288 287 287
284 282 282 282 282 284 284 285 285 285 285 284 284 284 284 284 284 285 285 286 287 287 286 286 285 283 284 285 286 286 287 288 289 290 291 291 290 290 289 289 289 289 288 289
284 282 281 282 283 285 285 285 285 284 285 285 285 285 285 285 285 285 285 285 286 287 287 286 286 285 284 285 287 288 288 290 290 290 291 291 291 290 290 290 290 290 290 289
284 283 282 282 283 284 284 284 285 286 286 286 286 286 286 286 286 285 285 286 286 286 287 287 287 287 287 287 288 289 290 291 291 291 291 291 291 291 292 292 291 292 292 291
284 283 282 283 283 284 284 284 284 285 285 286 286 286 285 285 285 285 286 286 286 286 286 287 288 288 288 289 289 289 290 291 290 291 292 291 291 292 293 293 292 293 294 293
Height
5715 5715 5714 5714 5713 5712 5710 5709 5709 5709 5707 5706 5706 5706 5706 5705 5705 5704 5703 5702 5702 5701 5700 5699 5699 5698 5698 5698 5697 5697 5696 5696 5695 5695 5694 5693 5692 5691 5691 5690 5689 5689 5689 5689
5708 5707 5707 5705 5703 5702 5701 5700 5700 5700 5698 5696 5696 5696 5696 5696 5695 5694 5693 5692 5691 5691 5690 5689 5688 5688 5687 5687 5686 5686 5686 5685 5684 5684 5683 5682 5681 5680 5679 5678 5677 5677 5676 5676
5699 5700 5698 5696 5695 5693 5693 5692 5691 5690 5688 5686 5685 5685 5687 5686 5685 5684 5683 5682 5681 5680 5679 5679 5678 5677 5677 5676 5676 5675 5675 5674 5673 5672 5671 5670 5669 5668 5667 5666 5665 5664 5663 5663
5690 5690 5689 5687 5686 5685 5684 5683 5681 5679 5678 5676 5675 5673 5677 5676 5675 5674 5673 5672 5671 5670 5669 5668 5667 5667 5666 5666 5665 5664 5663 5662 5662 5660 5659 5659 5657 5656 5655 5654 5653 5651 5650 5649
5681 5680 5679 5678 5678 5675 5674 5673 5671 5669 5667 5666 5665 5663 5666 5666 5665 5665 5663 5662 5660 5659 5658 5657 5657 5656 5655 5654 5654 5653 5652 5651 5650 5649 5648 5647 5645 5644 5643 5641 5640 5639 5637 5636
5672 5670 5669 5668 5667 5666 5664 5663 5661 5659 5657 5656 5657 5654 5654 5656 5655 5654 5653 5651 5649 5648 5648 5647 5646 5645 5644 5643 5642 5641 5640 5639 5637 5636 5635 5634 5633 5632 5630 5629 5628 5626 5624 5622
5662 5661 5659 5658 5657 5656 5655 5653 5651 5648 5646 5646 5646 5643 5645 5646 5645 5643 5642 5641 5639 5638 5637 5636 5635 5633 5632 5631 5630 5629 5628 5626 5625 5624 5623 5622 5620 5619 5618 5616 5615 5613 5611 5609
5651 5652 5651 5649 5648 5646 5645 5643 5642 5639 5637 5636 5635 5633 5636 5636 5635 5633 5632 5630 5628 5627 5626 5625 5624 5622 5621 5620 5618 5617 5616 5614 5613 5611 5610 5608 5607 5606 5604 5603 5602 5600 5598 5596
5641 5641 5641 5639 5637 5636 5635 5633 5632 5629 5626 5625 5624 5625 5626 5625 5624 5623 5622 5620 5618 5617 5615 5614 5612 5611 5609 5608 5607 5605 5604 5602 5600 5599 5597 5595 5594 5593 5591 5590 5588 5587 5585 5583
5630 5629 5630 5628 5627 5626 5625 5623 5622 5619 5616 5614 5615 5615 5616 5615 5614 5613 5611 5609 5607 5606 5604 5603 5601 5599 5598 5596 5595 5593 5592 5590 5588 5586 5585 5583 5581 5580 5578 5577 5575 5573 5571 5569
5620 5618 5618 5617 5616 5615 5615 5613 5611 5609 5607 5605 5603 5608 5606 5605 5603 5602 5600 5598 5596 5595 5593 5592 5590 5588 5587 5585 5583 5582 5580 5578 5576 5574 5572 5570 5568 5567 5565 5563 5562 5560 5558 5556
5609 5607 5606 5606 5606 5605 5604 5603 5601 5600 5597 5595 5593 5597 5596 5594 5592 5590 5589 5587 5585 5584 5582 5581 5579 5577 5575 5573 5572 5570 5568 5566 5564 5562 5560 5558 5556 5554 5552 5550 5548 5546 5544 5542
5599 5597 5595 5595 5597 5595 5593 5592 5590 5588 5586 5584 5583 5587 5585 5583 5581 5579 5578 5576 5574 5572 5571 5569 5568 5566 5564 5562 5560 5558 5556 5554 5552 5550 5548 5546 5543 5541 5539 5537 5535 5533 5531 5529
5588 5587 5587 5586 5584 5583 5582 5582 5580 5578 5575 5574 5574 5575 5574 5572 5570 5569 5567 5565 5563 5561 5559 5558 5556 5554 5552 5550 5549 5546 5544 5542 5540 5538 5536 5533 5531 5529 5526 5524 5522 5520 5518 5515
5578 5577 5576 5575 5574 5572 5571 5570 5569 5567 5565 5564 5564 5563 5563 5561 5559 5557 5555 5553 5552 5550 5548 5546 5545 5543 5541 5539 5537 5534 5532 5530 5528 5526 5524 5521 5519 5516 5514 5512 5509 5507 5504 5502
5568 5567 5566 5565 5564 5561 5560 5560 5558 5556 5555 5553 5552 5552 5551 5549 5548 5546 5544 5542 5541 5539 5537 5535 5533 5531 5529 5527 5525 5523 5521 5519 5516 5514 5512 5509 5507 5504 5502 5499 5497 5494 5491 5489
5558 5557 5555 5554 5552 5550 5549 5550 5548 5547 5545 5544 5542 5542 5540 5539 5537 5535 5533 5531 5530 5528 5526 5524 5522 5520 5518 5515 5513 5511 5509 5507 5505 5502 5500 5498 5495 5492 5490 5487 5484 5481 5479 5476
5549 5547 5544 5543 5542 5539 5543 5540 5538 5536 5535 5533 5531 5530 5529 5528 5526 5524 5522 5520 5518 5516 5515 5513 5511 5508 5506 5504 5502 5499 5497 5495 5493 5491 5488 5486 5483 5480 5478 5475 5472 5469 5466 5463
5540 5537 5535 5533 5530 5529 5532 5530 5528 5526 5525 5524 5521 5520 5518 5517 5515 5514 5511 5509 5507 5505 5503 5501 5499 5497 5495 5493 5490 5488 5486 5484 5481 5479 5476 5474 5471 5468 5466 5463 5460 5456 5453 5451
5530 5528 5526 5523 5520 5519 5523 5520 5517 5516 5515 5514 5511 5509 5508 5506 5505 5504 5501 5499 5496 5494 5492 5490 5488 5486 5484 5481 5479 5477 5475 5472 5470 5467 5464 5462 5459 5456 5453 5450 5447 5444 5441 5438
5521 5519 5516 5514 5511 5510 5512 5510 5507 5507 5505 5502 5500 5498 5497 5495 5494 5492 5490 5487 5485 5483 5481 5479 5477 5475 5473 5470 5468 5466 5463 5461 5458 5455 5453 5450 5447 5444 5441 5438 5435 5432 5429 5426
5511 5509 5508 5505 5502 5504 5502 5499 5498 5496 5493 5491 5489 5487 5486 5484 5482 5481 5479 5476 5474 5472 5470 5468 5466 5464 5462 5459 5457 5455 5452 5450 5447 5444 5441 5438 5435 5432 5429 5426 5423 5420 5417 5414
5502 5501 5498 5497 5496 5494 5491 5489 5487 5485 5483 5481 5479 5477 5475 5474 5472 5470 5468 5466 5464 5462 5459 5457 5455 5453 5451 5448 5446 5444 5441 5438 5436 5433 5430 5427 5424 5420 5418 5415 5412 5409 5406 5404
5492 5491 5488 5486 5485 5484 5481 5479 5477 5475 5473 5471 5469 5467 5465 5464 5462 5460 5458 5456 5453 5451 5449 5447 5445 5442 5440 5437 5435 5432 5430 5427 5425 5422 5419 5416 5413 5410 5407 5404 5401 5399 5396 5394
5483 5480 5478 5476 5476 5474 5472 5470 5468 5465 5463 5461 5459 5457 5455 5453 5451 5449 5448 5445 5443 5441 5438 5436 5434 5432 5429 5427 5424 5422 5419 5417 5414 5411 5408 5405 5402 5399 5397 5394 5391 5389 5386 5384
5474 5471 5469 5467 5466 5463 5462 5460 5457 5455 5453 5451 5449 5447 5445 5443 5441 5439 5437 5435 5433 5430 5428 5426 5423 5421 5419 5416 5414 5411 5408 5406 5403 5401 5398 5395 5392 5390 5387 5384 5382 5379 5377 5374